Regional Weather Roundup
Issued by NWS

Home | Current Version | Previous Version | Graphics & Text | Print | Product List | Glossary On
Versions: 1 2 3 4 5 6 7 8 9 10 11 12 13 14 15 16 17 18 19 20 21 22 23 24 25 26 27 28 29 30 31 32 33 34 35 36 37 38 39 40 41 42 43 44 45 46 47 48 49 50
000
ASUS43 KLSX 191557
RWRMO

WEATHER SUMMARY FOR MISSOURI
NATIONAL WEATHER SERVICE SPRINGFIELD MO
1100 AM CDT TUE SEP 19 2017

NOTE: "FAIR" INDICATES FEW OR NO CLOUDS BELOW 12,000 FEET WITH NO
       SIGNIFICANT WEATHER AND/OR OBSTRUCTIONS TO VISIBILITY.
       CURRENT SKY AND/OR WEATHER CONDITIONS ARE NOT AVAILABLE FOR
       CHILLICOTHE AND FARMINGTON.

MOZ001>031-035>038-043-044-053-054-191700-
...NORTHERN AND WESTERN MISSOURI...

CITY           SKY/WX    TMP DP  RH WIND       PRES   REMARKS
KANSAS CTY INT MOSUNNY   77  69  76 S15       29.88F
LEE`S SUMMIT   SUNNY     77  69  76 S14G22    29.90F
ST JOSEPH      SUNNY     79  69  71 S9        29.85F
CHILLICOTHE      N/A     71  71 100 S5        29.93F

$$
MOZ066>068-077>081-088>096-101>105-191700-
...SOUTHWEST MISSOURI...

CITY           SKY/WX    TMP DP  RH WIND       PRES   REMARKS
SPRINGFIELD    MOSUNNY   81  69  67 SW9       29.96S
JOPLIN         SUNNY     82  71  69 S14       29.92F
BRANSON        PTSUNNY   82  66  57 SE6       30.00R

$$
MOZ032>034-039>042-045>050-055>058-069>072-191700-
...CENTRAL MISSOURI...

CITY           SKY/WX    TMP DP  RH WIND       PRES   REMARKS
COLUMBIA       MOSUNNY   73  71  93 SE7       29.96S
JEFFERSON CITY MOSUNNY   74  69  85 CALM      29.95S
ROLLA          SUNNY     79  71  76 VRB6      29.99S
SEDALIA        CLOUDY    75  72  90 MISG      29.95F
WARRENSBURG    MOSUNNY   73  68  83 SE9       29.93R

$$
MOZ051-052-059>065-191700-
...EAST CENTRAL MISSOURI...

CITY           SKY/WX    TMP DP  RH WIND       PRES   REMARKS
ST LOUIS INTL  MOSUNNY   78  70  76 VRB3      29.97F
ST CHARLES     MOSUNNY   75  70  83 E5        29.96F

$$
MOZ072>076-082>087-097>100-106>115-191700-
...SOUTH CENTRAL AND SOUTHEAST MISSOURI...

CITY           SKY/WX    TMP DP  RH WIND       PRES   REMARKS
CAPE GIRARDEAU SUNNY     80  71  74 CALM      29.98S
POPLAR BLUFF   SUNNY     82  71  69 SW5       29.97S
WEST PLAINS    SUNNY     81  68  64 S3        30.00F

$$



USA.gov is the U.S. government's official web portal to all federal, state and local government web resources and services.